Home   Weather   Stockerau   Past weeks

Flag for Austria Past Weather in Stockerau, Lower Austria, Austria — Yesterday and Last 2 Weeks

Now
68 °F

Partly cloudy.


Feels Like: 68 °F
Forecast: 63 / 72 °F
Wind: 3 mph from Northeast

Location: Tulln Airport

Current Time: Jul 24, 2017 at 1:00:55 am

Latest Report: Jul 23, 2017 at 10:50 pm


Visibility: 19 mi

Pressure: 29.95 "Hg

Humidity: 94%

Dew Point: 66 °F

Location of StockerauLocation

Past Weather in Stockerau — Graph

°F

Stockerau Temperature Yesterday

Maximum temperature yesterday: 86 °F (at 4:50 pm)
Minimum temperature yesterday: 64 °F (at 5:50 am)
Average temperature yesterday: 76 °F

High & Low Weather Summary for the Past Weeks

 TemperatureHumidityPressure
High93 °F (Jul 20, 1:50 pm)100% (Jul 16, 5:50 am)30.27 "Hg (Jul 16, 5:50 am)
Low48 °F (Jul 14, 5:50 am)24% (Jul 13, 4:50 pm)29.77 "Hg (Jul 10, 3:20 pm)
Average74 °F58%29.98 "Hg
* Reported Jul 8 10:50 pm — Jul 23 10:50 pm, Stockerau. Weather by CustomWeather, © 2017

Note: Actual official high and low records may vary slightly from our data, if they occured in-between our weather recording intervals... More about our weather records

Advertising

Stockerau Weather History for the Previous 24 Hours

Scroll right to see more
 ConditionsComfort  
Time TempWeatherWind HumidityBarometerVisibility
10:50 pm
Sun, Jul 23
68 °FPartly cloudy.3 mph94%29.95 "Hg19 mi
9:50 pm68 °FPartly cloudy.3 mph88%29.95 "Hg19 mi
7:50 pm72 °FScattered clouds.2 mph83%29.95 "Hg31 mi
6:50 pm82 °FStrong thunderstorms. Broken clouds.10 mph48%29.95 "Hg37 mi
5:50 pm82 °FPartly sunny.5 mph48%29.95 "Hg37 mi
4:50 pm86 °FScattered clouds.6 mph43%29.95 "Hg37 mi
3:50 pm84 °FScattered clouds.10 mph48%29.95 "Hg37 mi
2:50 pm84 °FPartly sunny.9 mph45%29.98 "Hg31 mi
1:50 pm82 °FPartly sunny.10 mph45%29.98 "Hg31 mi
12:50 pm79 °FPartly sunny.10 mph51%30.01 "Hg31 mi
11:50 am77 °FPassing clouds.13 mph61%30.01 "Hg31 mi
10:50 am75 °FPassing clouds.17 mph65%30.01 "Hg31 mi
9:50 am75 °FPartly sunny.18 mph65%29.98 "Hg31 mi
8:50 am72 °FBroken clouds.17 mph73%29.98 "Hg31 mi
7:50 am68 °FPartly sunny.2 mph83%29.98 "Hg31 mi
6:50 am66 °FBroken clouds.2 mph88%29.95 "Hg37 mi
5:50 am64 °FPartly sunny.2 mph88%29.95 "Hg37 mi
Weather by CustomWeather, © 2017

See weather overviewHow to use our weather pages